Location: Clanezzo
(45.7500°N, 9.6000°E)
Time: 20:16:56
(UTC+00:00)

VELOX 1 - Visible Passes

Search period start: 27 June 2022 00:00
Search period end: 07 July 2022 00:00
Orbit: 625 x 638 km, 98.4° (Epoch: 24 June)

Date Brightness Start Highest point End Pass type
(mag) Time Alt. Az. Time Alt. Az. Time Alt. Az.
29 Jun ? 02:10:09 10° ENE 02:11:04 11° ENE 02:12:00 10° NE visible
30 Jun ? 02:29:00 10° E 02:31:42 16° ENE 02:34:25 10° NNE visible
01 Jul ? 02:48:50 10° ESE 02:52:23 24° ENE 02:55:57 10° N visible
04 Jul ? 02:17:20 10° E 02:19:08 12° ENE 02:20:57 10° NNE visible
05 Jul ? 02:36:43 10° ESE 02:39:46 19° ENE 02:42:50 10° NNE visible
06 Jul ? 02:56:42 10° SE 03:00:27 28° ENE 03:04:14 10° N visible
